DECAYED

STARLINK-2293, 47863 (Decayed)

Orbit data source: Space-Track

STARLINK-2293, 47863 was a payload satellite owned by SpaceX/Seattle (US) in LEO that was launched on Sun, 14 Mar 2021 UTC via an FALCON 9 launch vehicle from the Air Force Eastern Test Range (AFETR). Payload-class satellites include a variety of spacecraft equipped with specific instruments for various scientific and technological missions. These include communications satellites like Starlink; space stations such as the ISS; scientific satellites like the Hubble; Earth observation satellites from companies like Planet Labs, Umbra, and HawkEye 360; GPS; miniature CubeSats for education and research; and military/defense satellites.

Not visible in the next 10 days
Identifier
47863, 2021-021D
Orbit
Decayed
Country
Flag of USUS
Related business
Manufacturer
SpaceX/Seattle
Mission
Decayed Commercial Communications
Bus & Motor
STARLINK, Unknown motor
Mass
260 kg wet, ~248 kg dry
Launch date (UTC)
2021-03-14 (5 years ago)
Launch vehicle
FALCON 9
Launch site
Air Force Eastern Test Range (AFETR)
Object type
Payload
Rocket body
Debris
Shape & HBR
Box + 1 Pan, 10.1 m
Radar Cross Section
13.562 m², Large (>1 m²)

Expand to show TLE details & history
Last TLE update: 1 year ago

TLE from 1 year ago
0 STARLINK-2293
1 47863U 21021D   25117.20394376  .21686139  12565-4  45860-3 0  9999
2 47863  53.0259 220.6814 0005305 282.9705 163.5242 16.46558527228445
Epoch: 2025-04-27T04:53Z
TLE epoch observation values (Epoch: 2025-04-27T04:53:40.740Z)
Latitude
53.044°
Longitude
16.03231°
Altitude
158.175 km
Speed
7.816 km/s
True Right ascension
20h 19m 33s
True Declination
52° 51' 48"
Sunlit
Object was in daylight at epoch
Visualization orbit readout
Latitude
Unknown
Longitude
Unknown
Altitude
Unknown
Speed
Unknown
Apparent Right ascension
Unknown
Apparent Declination
Unknown
Sunlit
N/A
Visualization observer readout
Local Sidereal Time
21:30:39
Azimuth
Unknown
Elevation
Unknown
Doppler factor
Unknown
Orbital elements
Apogee altitude
152.168 km
Perigee altitude
145.243 km
Semi-major axis
6,526.842 km
Eccentricity
0.00053
Inclination
53.0259°
RAAN
220.6814°
Arg. of periapsis
282.9705°
True anomaly
163.54143°
Mean anomaly
163.5242°
Eccentric anomaly
163.53282°
Mean motion
4.11612 °/min
Orbital period
87.46 mins
BSTAR
0.0004586
Loading maneuver chart data...
Computing Atmospheric mass density...

Documentation

Showing up to 5 results
|